Zurück zum Katalog

STARLINK-31383

AktivKommunikationVLEO
NORAD 58936·PAYLOAD·🇺🇸 United States

Gestartet Feb 10, 2024 von Vandenberg Space Force Base

Loading…

Nächste Überflüge (nächste 24 Stunden)

TLE

AktuellSource: CelesTrak SupGP

Epoche: Sep 15, 2026, 01:43 UTC

1 58936C 24027F   26258.07201389 -.00013849  00000+0 -40921-3 0  2582
2 58936  53.1584 148.7989 0001346  84.3401 146.0814 15.34394020    15

Verfolge STARLINK-31383 in Echtzeit mit AllMySat

Download on the App Store